FW5773 Weather Reports


time (UTC)temp
C
wind
direction
speed
KPH
gust
KPH
rain 1hr
cm
rain 24hr
cm
rain mn
cm
humidity
%
barometer
mb
20260507183728 14 343 3.2 11.3 0.00 0.89 0.18 67 1012.5
20260507183255 14 352 3.2 11.3 0.00 0.89 0.18 67 1012.3
20260507182740 14 295 3.2 11.3 0.00 0.89 0.18 67 1012.2
20260507182240 15 264 1.6 12.9 0.00 0.89 0.18 67 1012.3
20260507181808 15 262 3.2 9.7 0.00 0.89 0.18 67 1012.3
20260507181226 15 322 4.8 9.7 0.00 0.89 0.18 66 1012.3
20260507180725 15 8 3.2 12.9 0.00 0.89 0.18 66 1012.3
20260507180243 15 283 6.4 12.9 0.00 0.89 0.18 65 1012.3
20260507175729 15 271 1.6 16.1 0.00 0.89 0.18 66 1012.3
20260507175228 15 246 6.4 14.5 0.00 0.89 0.18 65 1012.4
20260507174734 15 8 3.2 12.9 0.00 0.89 0.18 64 1012.4
20260507174234 15 300 4.8 12.9 0.00 0.89 0.18 64 1012.2
20260507173759 15 229 3.2 9.7 0.00 0.89 0.18 64 1012.2
20260507173238 15 300 3.2 17.7 0.00 0.89 0.18 63 1012.2
20260507172737 16 245 1.6 9.7 0.00 0.89 0.18 63 1012.2
20260507172243 16 295 3.2 9.7 0.00 0.89 0.18 61 1012.1
20260507171723 17 320 4.8 9.7 0.00 0.89 0.18 60 1012.1
20260507171222 17 264 3.2 6.4 0.00 0.89 0.18 60 1012.0
20260507170728 17 3 0.0 6.4 0.00 0.89 0.18 60 1012.0
20260507170237 17 44 1.6 12.9 0.00 0.89 0.18 60 1012.0
20260507165730 17 28 4.8 12.9 0.00 0.89 0.18 57 1011.9
20260507165230 17 22 0.0 11.3 0.00 0.89 0.18 58 1011.9
20260507164736 17 60 1.6 9.7 0.00 0.89 0.18 57 1011.9
20260507164236 17 239 3.2 9.7 0.00 0.89 0.18 58 1012.0
20260507163735 17 220 3.2 14.5 0.00 0.89 0.18 57 1011.9
20260507163242 17 264 1.6 14.5 0.00 0.89 0.18 58 1011.9
20260507162721 18 216 3.2 9.7 0.00 0.89 0.18 56 1012.0
20260507162240 17 355 0.0 12.9 0.00 0.89 0.18 58 1011.9
20260507161747 17 237 6.4 14.5 0.00 0.89 0.18 57 1012.0
20260507161223 17 148 4.8 12.9 0.00 0.89 0.18 59 1012.0
20260507160722 17 181 8.0 20.9 0.00 0.89 0.18 57 1011.9
20260507160300 18 221 11.3 20.9 0.00 0.89 0.18 56 1011.9
20260507155732 18 187 0.0 6.4 0.00 0.89 0.18 56 1011.9
20260507155300 18 190 1.6 12.9 0.00 0.89 0.18 57 1011.8
20260507154737 18 205 3.2 12.9 0.00 0.89 0.18 54 1011.9
20260507154237 18 191 1.6 16.1 0.00 0.89 0.18 59 1011.9
20260507153722 18 212 8.0 16.1 0.00 0.89 0.18 57 1011.8
20260507153221 18 203 1.6 11.3 0.00 0.89 0.18 58 1011.9
20260507152748 18 235 4.8 11.3 0.00 0.89 0.18 57 1011.8
20260507152234 18 200 1.6 9.7 0.00 0.89 0.18 57 1011.7
20260507151734 18 187 4.8 11.3 0.00 0.89 0.18 54 1011.7
20260507151233 18 211 4.8 11.3 0.00 0.89 0.18 57 1011.9
20260507150738 18 198 1.6 9.7 0.00 0.89 0.18 55 1012.0
20260507150250 17 37 3.2 12.9 0.00 0.89 0.18 56 1012.1
20260507145742 17 246 6.4 16.1 0.00 0.89 0.18 55 1012.1
20260507145243 17 307 6.4 16.1 0.00 0.89 0.18 59 1012.2
20260507144728 17 222 6.4 19.3 0.00 0.89 0.18 58 1012.0
20260507144232 17 44 6.4 20.9 0.00 0.89 0.18 58 1011.9
20260507143729 17 227 8.0 17.7 0.00 0.89 0.18 59 1012.0
20260507143229 17 239 11.3 20.9 0.00 0.89 0.18 60 1012.1
20260507142735 17 243 9.7 20.9 0.00 0.89 0.18 63 1012.1
20260507142234 17 53 0.0 16.1 0.00 0.89 0.18 62 1012.1
20260507141740 17 229 4.8 16.1 0.00 0.89 0.18 61 1012.1
20260507141239 16 238 4.8 14.5 0.00 0.89 0.18 61 1012.2
20260507140739 17 233 6.4 17.7 0.00 0.89 0.18 62 1012.2
20260507140237 17 247 11.3 19.3 0.00 0.89 0.18 60 1012.0
20260507135723 17 237 6.4 19.3 0.00 0.89 0.18 61 1012.1
20260507135221 17 231 8.0 11.3 0.00 0.89 0.18 56 1012.2
20260507134749 17 243 8.0 16.1 0.00 0.89 0.18 60 1012.2
20260507134246 17 206 6.4 17.7 0.00 0.89 0.18 61 1012.3
20260507133723 17 226 12.9 20.9 0.00 0.89 0.18 60 1012.3
20260507133227 17 235 11.3 20.9 0.00 0.89 0.18 58 1012.2
20260507132726 19 210 3.2 12.9 0.00 0.89 0.18 55 1012.2
20260507132226 19 192 3.2 9.7 0.00 0.89 0.18 57 1012.1
20260507131732 19 217 4.8 9.7 0.00 0.89 0.18 54 1012.2
20260507131253 18 205 3.2 8.0 0.00 0.89 0.18 55 1012.3
20260507130759 17 182 1.6 11.3 0.00 0.89 0.18 60 1012.2
20260507130256 17 252 6.4 11.3 0.00 0.89 0.18 59 1012.2
20260507125722 17 158 0.0 8.0 0.00 0.89 0.18 62 1012.2
20260507125309 17 201 1.6 12.9 0.00 0.89 0.18 60 1012.2
20260507124727 17 220 3.2 19.3 0.00 0.89 0.18 61 1012.4
20260507124226 17 231 9.7 19.3 0.00 0.89 0.18 61 1012.2
20260507123735 17 203 3.2 16.1 0.00 0.89 0.18 58 1012.2
20260507123230 17 236 8.0 16.1 0.00 0.89 0.18 57 1012.3
20260507122757 18 203 8.0 16.1 0.00 0.89 0.18 59 1012.3
20260507122236 18 193 3.2 9.7 0.00 0.89 0.18 57 1012.3
20260507121735 19 184 1.6 8.0 0.00 0.89 0.18 58 1012.3
20260507121241 18 143 4.8 8.0 0.00 0.89 0.18 57 1012.3
20260507120737 18 182 1.6 6.4 0.00 0.89 0.18 64 1012.3
20260507120250 17 186 3.2 6.4 0.00 1.50 0.18 59 1012.4
20260507115736 17 202 1.6 9.7 0.00 1.50 0.18 62 1012.4
20260507115236 17 161 3.2 11.3 0.00 1.50 0.18 63 1012.5
20260507114742 16 184 3.2 11.3 0.00 1.50 0.18 65 1012.5
20260507114239 16 198 3.2 9.7 0.00 1.50 0.18 65 1012.6
20260507113738 15 249 4.8 11.3 0.00 1.50 0.18 66 1012.5
20260507113245 15 193 6.4 11.3 0.00 1.50 0.18 69 1012.5
20260507112744 15 193 1.6 9.7 0.00 1.50 0.18 72 1012.7
20260507112229 15 191 6.4 9.7 0.00 1.50 0.18 70 1012.8
20260507111756 15 243 4.8 8.0 0.00 1.50 0.18 73 1012.7
20260507111234 14 210 3.2 6.4 0.00 1.50 0.18 74 1012.7
20260507110733 14 248 1.6 6.4 0.00 1.50 0.18 75 1012.8
20260507110247 13 215 1.6 6.4 0.00 3.20 0.18 75 1012.8
20260507105739 13 194 3.2 8.0 0.00 3.20 0.18 77 1012.8
20260507105259 13 249 1.6 8.0 0.00 3.20 0.18 76 1012.9
20260507104746 13 257 3.2 9.7 0.00 3.20 0.18 77 1012.9
20260507104224 14 235 4.8 9.7 0.00 3.20 0.18 76 1012.9
20260507103723 14 238 6.4 8.0 0.00 3.20 0.18 73 1012.9
20260507103230 15 229 3.2 8.0 0.00 3.20 0.18 72 1012.9
20260507102757 15 233 1.6 6.4 0.00 3.20 0.18 72 1012.9
20260507102236 15 276 1.6 8.0 0.00 3.20 0.18 72 1012.9
20260507101735 16 258 1.6 4.8 0.00 3.20 0.18 69 1012.9
20260507101242 16 181 0.0 4.8 0.00 3.20 0.18 70 1012.9
20260507100721 16 208 1.6 4.8 0.00 3.20 0.18 67 1013.0
20260507100259 16 176 1.6 6.4 0.00 4.50 0.18 68 1013.0
20260507095725 17 172 1.6 6.4 0.00 4.50 0.18 67 1013.0
20260507095224 17 175 1.6 4.8 0.00 4.50 0.18 70 1013.0
20260507094752 16 155 0.0 1.6 0.00 4.50 0.18 75 1013.0
20260507094230 16 186 0.0 0.0 0.00 4.50 0.18 74 1013.0
20260507093757 15 179 0.0 0.0 0.00 4.50 0.18 79 1013.0
20260507093235 13 193 0.0 0.0 0.00 4.50 0.18 81 1013.1
20260507092741 13 193 0.0 0.0 0.00 4.50 0.18 79 1013.1
20260507092240 13 194 0.0 0.0 0.00 4.50 0.18 78 1013.2
20260507091747 14 191 0.0 0.0 0.00 4.50 0.18 78 1013.2
20260507091246 14 176 0.0 0.0 0.00 4.50 0.18 78 1013.1
20260507090725 14 179 0.0 0.0 0.00 4.50 0.18 82 1013.1
20260507090305 13 158 0.0 0.0 0.00 4.60 0.18 79 1013.1
20260507085730 13 182 0.0 0.0 0.00 4.60 0.18 81 1013.1
20260507085255 13 173 0.0 0.0 0.00 4.60 0.18 82 1013.1
20260507084733 13 186 0.0 0.0 0.00 4.60 0.18 82 1013.1
20260507084301 12 188 0.0 0.0 0.00 4.60 0.18 81 1013.0
20260507083739 12 188 0.0 0.0 0.00 4.60 0.18 81 1013.0
20260507083238 12 184 0.0 0.0 0.00 4.60 0.18 81 1013.0
20260507082745 12 180 0.0 0.0 0.00 4.60 0.18 83 1013.1
20260507082244 12 188 0.0 0.0 0.00 4.60 0.18 84 1013.1
20260507081729 12 188 0.0 0.0 0.00 4.60 0.18 82 1013.0
20260507081227 12 188 0.0 0.0 0.00 4.60 0.18 83 1013.1
20260507080730 12 190 0.0 0.0 0.00 4.60 0.18 84 1013.1
20260507080241 12 192 0.0 0.0 0.00 4.60 0.18 86 1013.1
20260507075756 12 189 0.0 0.0 0.00 4.60 0.18 85 1013.1
20260507075300 12 188 0.0 0.0 0.00 4.60 0.18 87 1013.1
20260507074800 12 177 0.0 0.0 0.00 4.60 0.18 90 1013.1
20260507074242 11 181 0.0 0.0 0.00 4.60 0.18 91 1013.0
20260507073742 11 179 0.0 0.0 0.00 4.60 0.18 92 1012.9
20260507073246 10 179 0.0 0.0 0.00 4.60 0.18 91 1013.0
20260507072725 10 185 0.0 0.0 0.00 4.60 0.18 91 1013.0
20260507072231 10 186 0.0 0.0 0.00 4.60 0.18 91 1013.0
20260507071751 10 183 0.0 0.0 0.00 4.60 0.18 92 1012.9
20260507071258 10 184 0.0 0.0 0.00 4.60 0.18 91 1012.8
20260507070736 10 184 0.0 0.0 0.10 4.60 0.18 92 1012.8
20260507070253 10 183 0.0 0.0 0.10 4.60 0.18 93 1012.8
20260507065805 10 172 0.0 0.0 0.10 4.60 0.18 93 1012.8
20260507065223 10 172 0.0 0.0 0.10 4.60 0.18 93 1012.8
20260507064722 10 172 0.0 0.0 0.10 4.60 0.18 93 1012.8
20260507064222 10 172 0.0 0.0 0.10 4.60 0.18 95 1012.7
20260507063749 10 169 0.0 0.0 0.10 4.60 0.18 95 1012.7
20260507063228 9 169 0.0 0.0 0.10 4.60 0.18 95 1012.7
20260507062734 9 167 0.0 0.0 0.10 4.60 0.18 95 1012.6
20260507062234 9 167 0.0 0.0 0.20 4.60 0.18 95 1012.5
20260507061740 9 166 0.0 0.0 0.20 4.60 0.18 95 1012.5
20260507061239 9 166 0.0 0.0 0.20 4.60 0.18 95 1012.4
20260507060739 8 165 0.0 0.0 0.20 4.50 0.15 95 1012.4
20260507060238 8 165 0.0 0.0 0.20 4.50 0.15 95 1012.4
20260507055737 8 165 0.0 0.0 0.20 4.50 0.15 95 1012.5
20260507055240 8 165 0.0 0.0 0.20 4.50 0.15 95 1012.5
20260507054739 8 165 0.0 0.0 0.20 4.50 0.15 95 1012.4
20260507054238 8 165 0.0 0.0 0.20 4.50 0.15 95 1012.3
20260507053744 8 165 0.0 0.0 0.20 4.50 0.15 95 1012.3
20260507053223 8 165 0.0 0.0 0.20 4.50 0.15 95 1012.2
20260507052741 8 169 0.0 0.0 0.20 4.50 0.15 95 1012.2
20260507052247 8 181 0.0 0.0 0.10 4.39 0.15 95 1012.1
20260507051727 8 184 0.0 0.0 0.10 4.39 0.15 95 1012.0
20260507051230 8 184 0.0 0.0 0.10 4.39 0.15 95 1012.0
20260507050728 8 185 0.0 0.0 0.00 4.29 0.13 95 1011.9
20260507050305 8 185 0.0 0.0 0.00 4.29 0.13 95 1011.9
20260507045729 8 185 0.0 0.0 0.00 4.29 0.13 95 1011.8
20260507045253 8 186 0.0 0.0 0.00 4.29 0.13 95 1011.7
20260507044800 8 186 0.0 0.0 0.00 4.29 0.13 95 1011.7
20260507044238 8 186 0.0 0.0 0.00 4.29 0.13 95 1011.7
20260507043737 8 186 0.0 0.0 0.00 4.29 0.13 95 1011.6
20260507043244 8 186 0.0 0.0 0.00 4.29 0.13 95 1011.6
20260507042722 8 186 0.0 0.0 0.00 4.29 0.13 95 1011.6
20260507042247 8 186 0.0 0.0 0.00 4.29 0.13 95 1011.5
20260507041726 8 186 0.0 0.0 0.00 4.29 0.13 95 1011.5
20260507041221 8 186 0.0 0.0 0.00 4.29 0.13 95 1011.5
20260507040727 8 186 0.0 0.0 0.00 4.29 0.13 95 1011.4
20260507040237 7 186 0.0 0.0 0.00 4.29 0.13 95 1011.4
20260507035737 7 186 0.0 0.0 0.00 4.29 0.13 95 1011.4
20260507035237 7 186 0.0 0.0 0.00 4.29 0.13 95 1011.4
20260507034804 7 186 0.0 0.0 0.00 4.29 0.13 95 1011.4
20260507034222 7 186 0.0 0.0 0.00 4.29 0.13 95 1011.4
20260507033750 7 186 0.0 0.0 0.00 4.29 0.13 95 1011.4
20260507033249 7 186 0.0 0.0 0.00 4.29 0.13 95 1011.4
20260507032735 7 186 0.0 0.0 0.00 4.29 0.13 95 1011.3
20260507032234 7 186 0.0 0.0 0.00 4.29 0.13 95 1011.3
20260507031733 7 186 0.0 0.0 0.00 4.29 0.13 95 1011.3
20260507031240 8 186 0.0 0.0 0.00 4.29 0.13 95 1011.2
20260507030808 7 186 0.0 0.0 0.00 4.29 0.13 94 1011.3
20260507030236 8 186 0.0 0.0 0.00 4.29 0.13 94 1011.2
20260507025743 8 186 0.0 0.0 0.00 4.29 0.13 94 1011.1
20260507025228 8 186 0.0 0.0 0.00 4.29 0.13 94 1011.3
20260507024727 8 186 0.0 0.0 0.00 4.29 0.13 94 1011.3
20260507024235 8 186 0.0 0.0 0.00 4.29 0.13 94 1011.2
20260507023733 8 186 0.0 0.0 0.00 4.29 0.13 94 1011.2
20260507023233 8 186 0.0 0.0 0.00 4.29 0.13 94 1011.2
20260507022759 8 186 0.0 0.0 0.00 4.29 0.13 94 1011.1
20260507022306 8 187 0.0 0.0 0.00 4.29 0.13 94 1011.1
20260507021744 8 184 0.0 0.0 0.00 4.29 0.13 94 1011.1
20260507021222 8 184 0.0 0.0 0.00 4.29 0.13 94 1011.1
20260507020729 8 184 0.0 0.0 0.00 4.29 0.13 94 1011.1
20260507020238 8 184 0.0 0.0 0.00 4.29 0.13 95 1011.1
20260507015753 8 184 0.0 0.0 0.00 4.29 0.13 94 1011.0
20260507015231 8 191 0.0 0.0 0.10 4.29 0.13 94 1010.9
20260507014737 8 191 0.0 0.0 0.10 4.29 0.13 94 1011.0
20260507014237 8 191 0.0 0.0 0.10 4.29 0.13 94 1010.8
20260507013743 8 191 0.0 0.0 0.10 4.29 0.13 94 1010.8
20260507013223 8 191 0.0 0.0 0.10 4.29 0.13 94 1010.9
20260507012722 8 185 0.0 0.0 0.10 4.29 0.13 94 1010.9
20260507012247 8 186 0.0 0.0 0.10 4.29 0.13 94 1010.9
20260507011725 8 186 0.0 0.0 0.10 4.29 0.13 94 1011.0
20260507011224 8 186 0.0 0.0 0.10 4.29 0.13 94 1011.0
20260507010723 8 185 0.0 0.0 0.20 4.29 0.13 94 1011.1
20260507010241 8 185 0.0 0.0 0.20 4.29 0.13 94 1011.1
20260507005727 8 185 0.0 0.0 0.20 4.29 0.13 94 1011.0
20260507005233 8 185 0.0 0.0 0.10 4.19 0.10 94 1011.1
20260507004732 8 185 0.0 0.0 0.10 4.19 0.10 93 1011.0
20260507004236 8 185 0.0 0.0 0.20 4.19 0.10 93 1011.0
20260507003735 8 185 0.0 0.0 0.20 4.19 0.10 93 1011.0
20260507003301 8 186 0.0 0.0 0.30 4.19 0.10 93 1011.0
20260507002746 8 185 0.0 0.0 0.30 4.19 0.10 93 1010.9
20260507002246 8 185 0.0 0.0 0.30 4.19 0.10 93 1011.0
20260507001752 8 185 0.0 0.0 0.41 4.19 0.10 93 1010.9
20260507001231 8 185 0.0 0.0 0.41 4.19 0.10 93 1010.9
20260507000727 8 185 0.0 0.0 0.30 4.09 0.08 93 1010.9
20260507000245 8 185 0.0 0.0 0.30 4.09 0.08 93 1011.0
20260506235731 8 185 0.0 0.0 0.30 4.09 0.08 92 1010.9
20260506235237 8 185 0.0 0.0 0.41 4.09 0.08 92 1011.0
20260506234737 8 185 0.0 0.0 0.30 3.99 0.05 92 1010.9
20260506234236 8 185 0.0 0.0 0.30 3.99 0.05 92 1011.0
20260506233743 8 185 0.0 0.0 0.30 3.99 0.05 92 1011.0
20260506233222 8 185 0.0 0.0 0.20 3.91 0.05 92 1011.0
20260506232729 8 185 0.0 0.0 0.20 3.91 0.05 92 1011.0
20260506232224 8 185 0.0 0.0 0.20 3.91 0.05 92 1011.0
20260506231730 8 185 0.0 0.0 0.10 3.81 0.03 92 1011.0
20260506231225 8 185 0.0 0.0 0.10 3.81 0.03 92 1010.8
20260506230731 8 185 0.0 0.0 0.10 3.81 0.03 92 1010.9
20260506230242 8 185 0.0 0.0 0.10 3.81 0.03 92 1010.9
20260506225735 8 275 0.0 0.0 0.10 3.81 0.03 92 1010.8
20260506225234 8 275 0.0 0.0 0.00 3.71 0.00 91 1010.8
20260506224732 8 275 0.0 0.0 0.00 3.71 0.00 91 1010.8
20260506224300 8 275 0.0 0.0 0.00 3.71 0.00 91 1010.8
20260506223738 8 275 0.0 0.0 0.00 3.71 0.00 91 1010.8
20260506223245 8 275 0.0 0.0 0.00 3.71 0.00 90 1010.7
20260506222724 8 275 0.0 0.0 0.00 3.71 0.00 90 1010.8
20260506222222 8 275 0.0 0.0 0.00 3.71 0.00 91 1010.7
20260506221749 8 281 0.0 0.0 0.00 3.71 0.00 91 1010.7
20260506221255 8 281 0.0 0.0 0.00 3.71 0.00 90 1010.7
20260506220732 8 276 0.0 0.0 0.00 3.71 0.00 90 1010.8
20260506220311 8 276 0.0 0.0 0.00 3.71 0.74 90 1010.7
20260506215741 8 276 0.0 0.0 0.00 3.71 0.74 89 1010.6
20260506215240 8 276 0.0 0.0 0.00 3.71 0.74 89 1010.6
20260506214740 8 276 0.0 0.0 0.00 3.71 0.74 89 1010.6
20260506214246 8 276 0.0 0.0 0.00 3.71 0.74 89 1010.5
20260506213725 8 276 0.0 0.0 0.00 3.71 0.74 89 1010.5
20260506213221 8 276 0.0 0.0 0.00 3.71 0.74 88 1010.5
20260506212747 8 276 0.0 0.0 0.00 3.71 0.74 88 1010.5
20260506212227 8 276 0.0 0.0 0.00 3.71 0.74 87 1010.4
20260506211726 8 276 0.0 0.0 0.00 3.71 0.74 86 1010.5
20260506211234 8 4 0.0 0.0 0.00 3.71 0.74 86 1010.5
20260506210731 8 4 0.0 0.0 0.00 3.71 0.74 86 1010.4
20260506210308 8 4 0.0 3.2 0.00 3.71 0.74 86 1010.3
20260506205741 8 344 0.0 4.8 0.00 3.71 0.74 85 1010.2
20260506205238 9 39 1.6 4.8 0.00 3.71 0.74 83 1010.1
20260506204744 10 213 0.0 1.6 0.00 3.71 0.74 80 1009.9
20260506204244 10 191 0.0 1.6 0.00 3.71 0.74 80 1009.9
20260506203722 10 269 0.0 11.3 0.00 3.71 0.74 80 1009.8
20260506203227 10 214 1.6 16.1 0.00 3.71 0.74 79 1009.8
20260506202748 10 223 8.0 16.1 0.00 3.71 0.74 78 1009.6
20260506202234 10 336 4.8 11.3 0.00 3.71 0.74 79 1009.5
20260506201730 10 274 4.8 14.5 0.00 3.71 0.74 79 1009.6
20260506201236 10 273 6.4 17.7 0.00 3.71 0.74 79 1009.6
20260506200734 10 273 6.4 17.7 0.00 3.71 0.74 80 1009.4
20260506200245 10 250 4.8 6.4 0.00 3.71 0.74 81 1009.4
20260506195738 10 264 1.6 6.4 0.00 3.71 0.74 82 1009.3
20260506195238 10 260 3.2 6.4 0.00 3.71 0.74 82 1009.2
20260506194723 10 264 1.6 4.8 0.00 3.71 0.74 82 1009.2
20260506194243 10 240 1.6 4.8 0.00 3.71 0.74 82 1009.2
20260506193729 9 255 1.6 4.8 0.00 3.71 0.74 83 1009.2
20260506193228 9 235 1.6 4.8 0.00 3.71 0.74 82 1009.2
20260506192728 9 257 1.6 4.8 0.00 3.71 0.74 82 1009.1
20260506192234 9 257 0.0 4.8 0.00 3.71 0.74 84 1009.1
20260506191754 10 221 1.6 4.8 0.00 3.71 0.74 81 1009.1
20260506191239 10 264 3.2 4.8 0.00 3.71 0.74 81 1009.0
20260506190738 10 261 1.6 3.2 0.00 3.71 0.74 82 1009.0
20260506190256 10 243 0.0 1.6 0.00 3.71 0.74 83 1009.0
20260506185742 10 243 0.0 1.6 0.00 3.71 0.74 81 1009.0
20260506185247 10 243 0.0 4.8 0.00 3.71 0.74 81 1008.8
20260506184727 10 263 3.2 6.4 0.00 3.71 0.74 82 1008.8
20260506184226 10 259 3.2 6.4 0.00 3.71 0.74 81 1008.8